Location: Castro Valley
(37.6940°N, 122.0850°W)
Time: 06:18:15
(UTC-07:00)

PANSAT - Visible Passes

Search period start: 22 September 2017 00:00
Search period end: 02 October 2017 00:00
Orbit: 476 x 484 km, 28.5° (Epoch: 21 September)

Date Brightness Start Highest point End Pass type
(mag) Time Alt. Az. Time Alt. Az. Time Alt. Az.
25 Sep 10.3 05:44:56 10° SSE 05:45:03 10° SSE 05:45:10 10° SSE visible
26 Sep 10.2 05:15:03 10° SSE 05:15:24 10° SSE 05:15:44 10° SSE visible
27 Sep 9.6 06:22:15 10° SW 06:24:56 19° S 06:27:37 10° SE visible
28 Sep 9.5 05:53:23 13° SSW 05:55:16 19° S 05:57:57 10° SE visible
29 Sep 9.4 05:25:27 19° S 05:25:36 19° S 05:28:18 10° SE visible
30 Sep 10.0 04:57:31 15° SE 04:57:31 15° SE 04:58:39 10° SE visible
30 Sep 9.5 06:32:38 10° SW 06:35:14 18° S 06:37:51 10° SE visible
01 Oct 9.5 06:03:44 13° SW 06:05:35 18° S 06:08:11 10° SE visible
